Location: Sommers-Bausch Observatory
(40.0037°N, 105.2635°W)
Time: 14:37:13
(UTC-06:00)

Daily predictions for brighter satellites

Satellite Brightness Start Highest point End
(mag) Time Altitude Azimuth Time Altitude Azimuth Time Altitude Azimuth
Cosmos 1655 Rocket 4.2 20:12:57 10° N 20:19:15 57° E 20:25:26 10° SSE
HJ-1C 4.0 20:16:08 10° S 20:19:33 63° W 20:22:59 10° NNW
Cosmos 2195 Rocket 4.5 20:14:12 10° N 20:20:21 82° E 20:26:31 10° S
Cosmos 2322 Rocket 2.9 20:16:40 10° SW 20:22:12 63° WNW 20:27:48 10° NNE
Cosmos 2279 Rocket 4.1 20:16:54 10° S 20:23:00 60° E 20:29:06 10° NNE
USA 229 DEB 3.9 20:16:48 10° S 20:23:15 48° ESE 20:29:50 10° NE
USA 229 3.9 20:16:55 10° S 20:23:23 47° ESE 20:29:57 10° NE
BREEZE-M DEB (TANK) 4.4 20:19:06 10° WNW 20:23:26 58° NNE 20:40:15 10° E
Cosmos 2360 Rocket 2.3 20:22:58 10° S 20:28:29 57° ESE 20:34:02 10° NNE
H-2A R/B 3.2 20:25:21 10° S 20:29:12 66° W 20:33:01 10° NNW
ATLAS 5 CENTAUR R/B 2.5 20:28:26 10° NNW 20:34:30 77° NE 20:41:03 10° SE
Cosmos 1908 Rocket 4.4 20:30:48 10° NNE 20:34:41 31° ENE 20:38:33 10° SE
BREEZE-M DEB (TANK) 3.9 20:31:07 10° SW 20:35:02 75° SSE 20:44:19 10° ENE
Cosmos 1992 Rocket 4.4 20:30:27 10° SSW 20:35:39 70° WNW 20:40:55 10° NNE
Resurs 01 Rocket 2.0 20:32:42 10° S 20:37:08 71° WSW 20:41:36 10° NNW
COSMOS 2428 3.5 20:33:21 10° SSE 20:38:12 30° ESE 20:43:06 10° NE
Helios 1A 3.3 20:36:10 10° SSE 20:40:15 51° ENE 20:44:24 10° N
Cosmos 1939 Rocket 3.7 20:37:00 10° SE 20:40:36 33° ENE 20:44:11 10° N
CZ-4B DEB 3.6 20:38:31 11° SE 20:41:04 29° ENE 20:43:46 10° N
YAOGAN 6 4.0 20:46:02 13° ESE 20:48:10 21° ENE 20:50:57 10° NNE
USA 267 3.5 20:42:04 10° NE 20:48:36 76° NW 20:55:08 10° SW
Okean 1-7 4.2 20:45:24 10° SE 20:48:50 24° E 20:52:22 10° NE
Cosmos 1733 Rocket 3.3 20:44:59 10° NNW 20:49:26 73° W 20:53:52 10° S
Atlas Centaur 2 3.3 20:44:17 10° WSW 20:49:49 36° S 20:55:28 14° ESE
Sich 1 Rocket 3.9 20:46:30 10° N 20:50:51 48° E 20:55:09 10° SSE
Cosmos 2322 3.7 20:45:34 10° SSW 20:51:16 76° ESE 20:56:58 10° NNE
SL-16 R/B 4.0 20:49:27 10° SW 20:54:37 35° WNW 20:59:49 10° N
OAO 3 Rocket 4.5 20:54:39 10° WSW 20:58:48 28° SSW 21:02:01 15° SSE
Cosmos 1862 Rocket 4.3 20:56:20 10° SSW 21:00:44 58° W 21:05:11 10° N
Cosmos 968 Rocket 3.5 21:00:25 10° NNW 21:05:40 89° WSW 21:10:35 12° SSE
Meteor 2-10 Rocket 3.8 21:01:22 10° S 21:07:12 88° E 21:12:59 10° N
Cosmos 1844 Rocket 3.3 21:02:53 10° N 21:08:07 39° ENE 21:11:28 20° ESE
Cosmos 2237 Rocket 3.6 21:08:38 17° ESE 21:09:05 17° E 21:12:41 10° ENE
Okean 2 Rocket 3.9 21:06:37 10° NNE 21:10:42 33° ENE 21:12:43 22° ESE
Meteor 1-14 Rocket 4.3 21:05:32 10° N 21:11:13 63° E 21:16:02 15° SSE
CZ-4C R/B 4.0 21:05:41 10° NNW 21:11:43 30° NE 21:17:07 14° E
Lacrosse 4 Rocket 4.3 21:10:21 10° WNW 21:12:24 13° WSW 21:14:27 10° SW
Cosmos 2333 4.3 21:08:08 10° S 21:13:39 54° ESE 21:19:16 10° NNE
Cosmos 2278 Rocket 3.8 21:10:30 10° N 21:14:37 20° NE 21:17:25 15° E
Helios 1B rocket 2.8 21:10:35 10° N 21:14:40 68° WNW 21:18:44 10° SSW
Cosmos 2333 Rocket 3.0 21:13:48 17° SSE 21:17:10 29° ESE 21:22:03 10° NE
DELTA 2 R/B(2) 4.2 21:16:44 10° W 21:19:22 37° SSW 21:19:32 36° S
Cosmos 1703 Rocket 3.5 21:17:21 10° S 21:21:48 87° E 21:26:13 10° N
USA 234 3.7 21:17:39 18° ESE 21:22:25 54° NE 21:28:46 10° NW
USA 186 4.1 21:21:21 10° SW 21:23:33 20° W 21:25:53 10° NW
Meteor 1-29 3.6 21:21:12 10° N 21:24:37 56° WNW 21:27:58 10° SSW
Envisat 3.5 21:23:25 10° S 21:28:24 60° W 21:33:26 10° NNW
Cosmos 2219 Rocket 2.4 21:24:52 10° S 21:30:11 47° ESE 21:35:33 10° NE
SPOT 5 3.4 21:37:06 32° ESE 21:38:27 39° ENE 21:42:41 10° N
SeaSat 1 3.8 21:38:34 21° E 21:40:15 25° NE 21:44:14 10° N
ERS-1 Rocket 2.9 21:41:58 28° SSE 21:44:42 90° WNW 21:49:45 10° NNW
Cosmos 2151 Rocket 4.2 21:41:27 10° N 21:45:36 37° ENE 21:46:05 36° E
NOSS 0 Rocket 4.1 21:44:08 23° S 21:47:45 47° ESE 21:53:36 10° NE
H-2A R/B 2.9 21:47:19 28° E 21:48:13 30° ENE 21:52:28 10° N
Cosmos 2263 Rocket 4.5 21:47:15 10° WNW 21:50:59 19° W 21:54:43 10° SW
Cosmos 1782 2.7 21:54:00 48° S 21:55:03 85° E 21:59:05 10° N
Cosmos 1570 Rocket 3.9 21:51:52 23° S 21:55:06 70° ESE 22:00:23 10° NNE
Cosmos 2221 Rocket 4.3 21:51:31 10° SSW 21:55:49 52° W 22:00:11 10° N
YAOGAN 11 4.0 21:58:32 55° SSE 21:59:28 80° ENE 22:03:48 10° N
MetOp-B 4.0 21:58:33 39° SSE 22:00:39 86° ENE 22:06:01 10° NNW
ASTEX 1 4.4 22:00:41 30° ENE 22:00:49 30° ENE 22:05:06 10° NNE
H-2A R/B 3.6 22:04:32 23° ENE 22:04:32 23° ENE 22:07:44 10° NNE
NOSS 3-1 (C) 3.4 22:00:19 10° SW 22:06:03 81° NW 22:12:30 10° NNE
Cosmos 1346 Rocket 3.6 22:07:05 39° NE 22:07:05 39° NE 22:09:57 10° NNE
Cosmos 2208 Rocket 3.9 22:05:31 27° SSW 22:08:29 83° ESE 22:13:49 10° NNE
Terra 3.1 22:11:24 27° ENE 22:11:24 27° ENE 22:15:17 10° N
Meteor 1-27 Rocket 3.7 22:15:33 54° SE 22:16:31 63° E 22:22:01 10° NNE
ATLAS 5 CENTAUR R/B 4.5 22:14:32 10° WNW 22:18:45 19° WSW 22:23:09 10° SSW
Abrixas rocket 3.7 22:18:18 10° NW 22:20:39 34° NNW 22:20:39 34° NNW
COSMOS 2428 4.1 22:17:03 10° SW 22:22:19 38° WNW 22:27:38 10° N
Cosmos 1606 3.4 22:23:21 47° W 22:23:38 49° W 22:27:19 10° N
NOSS 3-1 (A) 3.4 22:18:10 10° SW 22:23:55 82° NW 22:30:24 10° NNE
ARGOS 3.2 22:22:46 52° S 22:24:06 76° WSW 22:29:31 10° NNW
Cosmos 1898 Rocket 3.9 22:19:40 10° N 22:24:41 47° ENE 22:24:50 47° ENE
ATLAS 2AS CENTAUR R/B 4.0 22:26:52 27° E 22:26:52 27° E 22:31:50 10° NE
Cosmos 1300 Rocket 4.1 22:21:09 10° N 22:24:42 45° NE 22:24:42 45° NE
Cosmos 1980 3.5 22:23:56 41° SSW 22:26:01 86° ESE 22:31:42 10° NNE
Cosmos 1844 4.0 22:24:55 10° NNW 22:30:27 58° WSW 22:31:42 47° SSW
SL-08 R/B 4.3 22:24:42 10° N 22:30:51 77° E 22:31:57 61° SSE
Cosmos 2084 3.8 22:28:12 10° NW 22:31:20 54° WNW 22:31:20 54° WNW
Cosmos 1553 Rocket 3.9 22:30:41 51° S 22:32:24 84° E 22:38:38 10° N
SL-16 R/B 3.3 22:35:10 29° ENE 22:35:10 29° ENE 22:38:28 10° NE
SPOT 1/Viking Rocket 3.5 22:35:38 69° SSW 22:36:13 79° WSW 22:41:27 10° NNW
Atlas Centaur 2 3.7 22:32:47 10° WSW 22:38:06 30° SSW 22:38:06 30° SSW
SL-08 RB Rocket 4.1 22:43:17 55° WSW 22:43:18 55° W 22:47:47 10° NNW
ATLAS CENTAUR R/B 3.8 22:48:56 15° NE 22:48:56 15° NE 22:49:38 10° NE
Meteor 1-11 Rocket 3.6 22:40:31 10° NNW 22:46:04 80° W 22:46:32 73° SSW
ATLAS 3B R/B 4.1 22:42:26 10° NNW 22:47:59 25° NE 22:50:28 21° ENE
Cosmos 1844 Rocket 4.1 22:47:07 10° NW 22:51:47 28° WSW 22:53:10 25° SW
Cosmos 2237 Rocket 2.5 22:50:19 36° SW 22:52:33 63° WNW 22:58:13 10° NNE
Cosmos 468 Rocket 4.0 22:53:13 80° N 22:53:13 80° N 22:58:15 10° NNE
Meteor 2-11 Rocket 4.4 22:56:04 68° SSW 22:56:53 81° W 23:03:00 10° N
Cosmos 2278 Rocket 2.3 22:53:35 10° NNW 22:59:10 62° WSW 22:59:16 62° WSW
Cosmos 883 Rocket 4.4 22:59:32 66° ENE 22:59:32 66° ENE 23:05:19 10° NNE
CZ-4C R/B 2.9 22:53:41 10° NW 23:00:56 75° WSW 23:02:18 61° S
Cosmos 2333 Rocket 3.4 22:55:51 10° SW 23:01:13 40° WNW 23:06:39 10° N
Cosmos 1386 Rocket 4.3 22:54:54 10° N 23:01:19 85° E 23:01:39 81° SE
Cosmos 1536 4.3 22:59:21 10° N 23:01:47 35° NNW 23:01:47 35° NNW
S3M 4.4 23:03:20 44° SW 23:04:59 57° W 23:11:08 10° N
USA 234 3.7 23:04:59 44° SW 23:05:28 45° SW 23:11:42 10° WNW
H-2A R/B 4.1 22:28:56 10° W 23:07:58 41° SSW 23:08:56 40° SSW
Timation 1 Rocket 4.3 23:02:51 10° NNW 23:08:45 73° WSW 23:08:45 73° WSW
Cosmos 1709 Rocket 4.1 23:06:12 10° N 23:12:17 64° ENE 23:12:17 64° ENE
Cosmos 2219 Rocket 4.2 23:09:46 10° WSW 23:14:21 25° NW 23:18:59 10° N
SeaSat 1 3.4 23:18:21 41° W 23:18:21 41° W 23:22:15 10° NW
H-2A R/B 3.4 23:27:57 29° W 23:27:57 29° W 23:31:52 10° NW
Cosmos 1937 Rocket 4.5 23:33:19 10° NNW 23:37:08 41° WNW 23:37:08 41° WNW
H-2A R/B 4.1 23:41:39 23° WNW 23:41:39 23° WNW 23:43:56 10° NW
Terra 3.6 23:50:17 26° WNW 23:50:17 26° WNW 23:53:08 10° NW
Cosmos 1943 Rocket 4.3 23:48:27 10° NNE 23:51:48 16° NE 23:52:29 15° ENE
Cosmos 2369 Rocket 3.7 23:47:49 10° N 23:52:03 27° NE 23:52:03 27° NE
